Home   Weather   Waltrop   Past weeks

Flag for Germany Past Weather in Waltrop, North Rhine-Westphalia, Germany — Yesterday and Last 2 Weeks

Now
66 °F

Sunny.


Feels Like: 66 °F
Forecast: 60 / 71 °F
Wind: 16 mph from Southwest

Location: Dortmund / Wickede

Current Time: Sep 28, 2016 at 7:18:08 PM

Latest Report: Sep 28, 2016 at 6:50 PM


Visibility: 10 mi

Pressure: 30.21 "Hg

Humidity: 52%

Dew Point: 48 °F

Location of WaltropLocation

Past Weather in Waltrop — Graph

°F

Waltrop Temperature Yesterday

Maximum temperature yesterday: 72 °F (at 3:50 PM)
Minimum temperature yesterday: 48 °F (at 7:20 AM)
Average temperature yesterday: 61 °F

High & Low Weather Summary for the Past Weeks

 TemperatureHumidityPressure
High88 °F (Sep 13, 5:20 PM)88% (Sep 16, 6:20 AM)30.30 "Hg (Sep 16, 6:20 AM)
Low45 °F (Sep 21, 6:20 AM)23% (Sep 15, 2:50 PM)29.80 "Hg (Sep 15, 3:50 PM)
Average64 °F58%30.09 "Hg
* Reported Sep 13 5:20 PM — Sep 28 5:50 PM, Waltrop, Weather by CustomWeather, © 2016

Note: Actual official high and low records may vary slightly from our data, if they occured in-between our weather recording intervals... More about our weather records

Advertising

Waltrop Weather History for the Previous 24 Hours

Scroll right to see more
 ConditionsComfort  
Time TempWeatherWind HumidityBarometerVisibility
5:50 PM
Wed, Sep 28
68 °FSunny.14 mph49%30.21 "Hg10 mi
5:20 PM70 °FPassing clouds.16 mph46%30.21 "HgN/A
4:50 PM70 °FSunny.14 mph50%30.21 "Hg10 mi
4:20 PM70 °FSunny.16 mph50%30.21 "Hg10 mi
3:50 PM66 °FSunny.16 mph56%30.21 "Hg10 mi
3:20 PM66 °FSunny.16 mph60%30.21 "Hg10 mi
2:50 PM66 °FPassing clouds.16 mph60%30.24 "HgN/A
2:20 PM66 °FScattered clouds.15 mph60%30.24 "HgN/A
1:50 PM64 °FScattered clouds.17 mph64%30.24 "HgN/A
1:20 PM64 °FScattered clouds.16 mph64%30.24 "HgN/A
12:50 PM63 °FPartly sunny.18 mph68%30.24 "HgN/A
12:20 PM61 °FPartly sunny.16 mph72%30.24 "HgN/A
11:50 AM61 °FPartly sunny.15 mph72%30.24 "HgN/A
11:20 AM61 °FPartly sunny.15 mph72%30.27 "HgN/A
10:50 AM61 °FPartly sunny.17 mph72%30.27 "HgN/A
10:20 AM61 °FPartly sunny.17 mph68%30.24 "HgN/A
9:50 AM61 °FPartly sunny.15 mph63%30.27 "HgN/A
9:20 AM61 °FPartly sunny.14 mph59%30.24 "HgN/A
8:50 AM61 °FScattered clouds.15 mph55%30.24 "HgN/A
8:20 AM59 °FPartly sunny.13 mph55%30.24 "HgN/A
7:50 AM59 °FScattered clouds.14 mph55%30.24 "HgN/A
7:20 AM59 °FClear.14 mph51%30.21 "Hg10 mi
6:50 AM59 °FClear.15 mph51%30.21 "Hg10 mi
6:20 AM59 °FClear.14 mph51%30.21 "Hg10 mi
5:50 AM59 °FClear.16 mph51%30.21 "Hg10 mi
5:20 AM59 °FPassing clouds.13 mph51%30.24 "HgN/A
9:50 PM
Tue, Sep 27
54 °FClear.7 mph67%30.30 "Hg10 mi
9:20 PM54 °FClear.7 mph67%30.30 "Hg10 mi
8:50 PM54 °FClear.6 mph67%30.27 "Hg10 mi
8:20 PM55 °FClear.6 mph63%30.27 "Hg10 mi
7:50 PM55 °FClear.6 mph63%30.27 "Hg10 mi
7:20 PM57 °FClear.6 mph55%30.27 "Hg10 mi
Weather by CustomWeather, © 2016

See weather overviewHow to use our weather pages